Weather History for KMYP - May, 2013

Change the Weather History Date:

Tuesday, May 7, 2013

  Actual Average Record
Temperature  
Mean Temperature 29 °F -  
Max Temperature 32 °F - - ()
Min Temperature 26 °F - - ()
Degree Days  
Heating Degree Days 36    
Moisture  
Dew Point 27 °F    
Average Humidity 92    
Maximum Humidity 100    
Minimum Humidity 64    
Precipitation  
Precipitation 0.00 in - - ()
Sea Level Pressure  
Sea Level Pressure 30.31 in    
Wind  
Wind Speed 15 mph (West)    
Max Wind Speed 39 mph    
Max Gust Speed 28 mph    
T = Trace of Precipitation, MM = Missing Value Source: NWS Daily Summary

Daily Weather History Graph

Daily Weather History Graph

Search for Another Location

Airport or City:

Trip Planner

Search our weather history database for the weather conditions in past years. The results will help you decide how hot, cold, wet, or windy it might be!

Date:

Astronomy

May. 07, 2013 Rise Set
Actual Time 6:01 AM MDT 8:02 PM MDT
Civil Twilight 5:32 AM MDT 8:32 PM MDT
Nautical Twilight 4:56 AM MDT 9:07 PM MDT
Astronomical Twilight 4:18 AM MDT 9:46 PM MDT
Moon 4:35 AM MDT (5/7) 6:06 PM MDT (5/7)
Length of Visible Light 15h 00m
Length of Day
14h 01m
Waning Crescent, 5% of the Moon is Illuminated
May 7
Waning Crescent
May 9
New
May 17
First Quarter
May 24
Full
May 31
Last Quarter

Hourly Weather History & Observations

Time (MDT) Temp. Windchill Dew Point Humidity Pressure Visibility Wind Dir Wind Speed Gust Speed Precip Events Conditions
12:12 AM 28.4 °F 11.0 °F 26.6 °F 93% 30.29 in - West 39.1 mph - N/A   Overcast
12:32 AM 28.4 °F - 26.6 °F 93% 30.29 in - North - - N/A   Overcast
12:52 AM 28.4 °F - 26.6 °F 93% 30.28 in - North - - N/A   Overcast
1:12 AM 28.4 °F - 26.6 °F 93% 30.28 in - North - - N/A   Overcast
1:32 AM 28.4 °F - 26.6 °F 93% 30.27 in - North - - N/A   Overcast
1:52 AM 28.4 °F 13.5 °F 26.6 °F 93% 30.27 in - West 26.5 mph - N/A   Overcast
2:12 AM 28.4 °F - 26.6 °F 93% 30.27 in - North - - N/A   Overcast
2:32 AM 28.4 °F - 26.6 °F 93% 30.27 in - North - - N/A   Overcast
2:52 AM 28.4 °F - 26.6 °F 93% 30.27 in - North - - N/A   Overcast
3:12 AM 28.4 °F - 26.6 °F 93% 30.26 in - North - - N/A   Overcast
3:32 AM 28.4 °F - 26.6 °F 93% 30.25 in - North - - N/A   Overcast
3:52 AM 26.6 °F - 26.6 °F 100% 30.24 in - North - - N/A   Overcast
4:12 AM 26.6 °F - 26.6 °F 100% 30.25 in - North - - N/A   Overcast
4:32 AM 26.6 °F - 26.6 °F 100% 30.25 in - North - - N/A   Overcast
4:52 AM 26.6 °F - 26.6 °F 100% 30.25 in - North - - N/A   Overcast
5:12 AM 26.6 °F - 26.6 °F 100% 30.26 in - North - - N/A   Overcast
5:32 AM 26.6 °F - 26.6 °F 100% 30.26 in - North - - N/A   Overcast
5:52 AM 26.6 °F - 24.8 °F 93% 30.27 in - North - - N/A   Overcast
6:12 AM 26.6 °F - 24.8 °F 93% 30.27 in - North - - N/A   Overcast
6:32 AM 26.6 °F - 24.8 °F 93% 30.27 in - North - - N/A   Overcast
6:52 AM 26.6 °F - 26.6 °F 100% 30.28 in - North - - N/A   Overcast
7:12 AM 26.6 °F - 26.6 °F 100% 30.28 in - North - - N/A   Overcast
7:32 AM 26.6 °F - 26.6 °F 100% 30.29 in - North - - N/A   Overcast
7:52 AM 26.6 °F - 26.6 °F 100% 30.30 in - North - - N/A   Overcast
8:12 AM 26.6 °F - 26.6 °F 100% 30.30 in - North - - N/A   Overcast
8:32 AM 28.4 °F - 26.6 °F 93% 30.30 in - North - - N/A   Overcast
8:52 AM 28.4 °F - 26.6 °F 93% 30.30 in - North - - N/A   Overcast
9:12 AM 28.4 °F - 26.6 °F 93% 30.30 in - North - - N/A   Overcast
9:32 AM 28.4 °F - 26.6 °F 93% 30.32 in - North - - N/A   Overcast
9:52 AM 28.4 °F - 26.6 °F 93% 30.31 in - North - - N/A   Overcast
10:12 AM 28.4 °F 15.4 °F 28.4 °F 100% 30.32 in - West 19.6 mph - N/A   Overcast
10:32 AM 28.4 °F 17.0 °F 28.4 °F 100% 30.33 in - West 15.0 mph 25.3 mph N/A   Overcast
10:52 AM 28.4 °F - 28.4 °F 100% 30.33 in - North - - N/A   Unknown
11:12 AM 30.2 °F 17.8 °F 28.4 °F 93% 30.33 in - West 19.6 mph 27.6 mph N/A   Mostly Cloudy
11:32 AM 30.2 °F 17.1 °F 28.4 °F 93% 30.34 in - West 21.9 mph 27.6 mph N/A   Overcast
12:12 PM 30.2 °F 18.9 °F 30.2 °F 100% 30.34 in - West 16.1 mph 23.0 mph N/A   Unknown
12:32 PM 32.0 °F 20.1 °F 30.2 °F 93% 30.33 in - West 19.6 mph 24.2 mph N/A   Mostly Cloudy
12:52 PM 32.0 °F 20.5 °F 30.2 °F 93% 30.33 in - West 18.4 mph 23.0 mph N/A   Unknown
1:12 PM 30.2 °F 19.8 °F 28.4 °F 93% 30.33 in - West 13.8 mph - N/A   Unknown
1:32 PM 32.0 °F 23.6 °F 28.4 °F 87% 30.33 in - WSW 10.4 mph - N/A   Mostly Cloudy
1:52 PM 32.0 °F 25.6 °F 28.4 °F 87% 30.33 in - WSW 6.9 mph - N/A   Overcast
2:12 PM 32.0 °F 24.2 °F 28.4 °F 87% 30.33 in - WSW 9.2 mph - N/A   Unknown
2:32 PM 32.0 °F 23.0 °F 30.2 °F 93% 30.33 in - West 11.5 mph - N/A   Unknown
2:52 PM 32.0 °F 28.7 °F 28.4 °F 87% 30.32 in - West 3.5 mph - N/A   Unknown
3:12 PM 30.2 °F - 28.4 °F 93% 30.32 in - Calm Calm - N/A   Overcast
3:32 PM 30.2 °F 21.9 °F 28.4 °F 93% 30.32 in - West 9.2 mph - N/A   Overcast
3:52 PM 30.2 °F - 28.4 °F 93% 30.32 in - Calm Calm - N/A Thunderstorm Thunderstorm
4:12 PM 30.2 °F - 28.4 °F 93% 30.32 in - Calm Calm - N/A   Overcast
4:32 PM 32.0 °F 23.0 °F 30.2 °F 93% 30.32 in - West 11.5 mph 16.1 mph N/A   Unknown
4:52 PM 32.0 °F 25.6 °F 30.2 °F 93% 30.32 in - WSW 6.9 mph - N/A   Unknown
5:12 PM 32.0 °F 25.6 °F 32.0 °F 100% 30.32 in - West 6.9 mph - N/A   Overcast
5:52 PM 32.0 °F 27.5 °F 30.2 °F 93% 30.32 in - West 4.6 mph - N/A   Unknown
6:12 PM 32.0 °F - 30.2 °F 93% 30.32 in - Calm Calm - N/A   Unknown
6:32 PM 32.0 °F - 30.2 °F 93% 30.32 in - Calm Calm - N/A Thunderstorm Thunderstorm
6:52 PM 32.0 °F 25.6 °F 30.2 °F 93% 30.32 in - West 6.9 mph - N/A Thunderstorm Thunderstorm
7:12 PM 32.0 °F 26.4 °F 30.2 °F 93% 30.32 in - West 5.8 mph - N/A Thunderstorm Thunderstorm
7:32 PM 32.0 °F 23.6 °F 28.4 °F 87% 30.32 in - WSW 10.4 mph - N/A   Unknown
7:52 PM 32.0 °F 24.8 °F 28.4 °F 87% 30.32 in - West 8.1 mph - N/A   Unknown
8:12 PM 32.0 °F 27.5 °F 28.4 °F 87% 30.33 in - West 4.6 mph - N/A   Unknown
8:32 PM 32.0 °F - 26.6 °F 80% 30.33 in - Calm Calm - N/A   Clear
8:52 PM 30.2 °F 23.4 °F 26.6 °F 86% 30.33 in - West 6.9 mph - N/A   Unknown
9:12 PM 30.2 °F 23.4 °F 26.6 °F 86% 30.33 in - West 6.9 mph - N/A   Unknown
9:32 PM 30.2 °F 22.6 °F 26.6 °F 86% 30.33 in - West 8.1 mph - N/A   Unknown
9:52 PM 30.2 °F 21.9 °F 26.6 °F 86% 30.33 in - West 9.2 mph - N/A   Unknown
10:12 PM 30.2 °F - 26.6 °F 86% 30.33 in - Calm Calm - N/A   Unknown
10:32 PM 30.2 °F - 26.6 °F 86% 30.33 in - Calm Calm - N/A   Unknown
10:52 PM 30.2 °F 24.3 °F 24.8 °F 80% 30.33 in - West 5.8 mph - N/A   Clear
11:12 PM 30.2 °F 25.4 °F 24.8 °F 80% 30.33 in - West 4.6 mph - N/A   Clear
11:32 PM 30.2 °F 25.4 °F 23.0 °F 75% 30.33 in - WSW 4.6 mph - N/A   Clear
11:52 PM 32.0 °F 28.7 °F 21.2 °F 64% 30.33 in - SSW 3.5 mph - N/A   Clear